Simultaneous Nadir Overpasses (SNOs) Predictions

Prediction of SNOs between GOES-16 and AQUA Satellite Orbit:

Table of predicted SNOs for the next 14.0 days since TLE Epoch: 12/6/2019
Index Date Time (GOES-16) GOES-16 Lat,Lon AQUA Lat,Lon Distance(km) Time Diff (sec)
1 12/07/2019 06:17:09 0.01, -75.20 -0.92, -70.91 488.18 80
2 12/07/2019 18:38:33 -0.01, -75.20 -0.18, -76.10 101.70 80
3 12/09/2019 18:29:02 -0.01, -75.21 0.42, -73.14 234.88 80
4 12/10/2019 06:50:18 0.01, -75.21 0.68, -78.29 351.60 80
5 12/12/2019 06:38:08 0.01, -75.21 0.01, -75.35 15.08 80
6 12/14/2019 06:23:17 0.02, -75.22 -0.60, -72.39 322.30 80
7 12/14/2019 18:44:41 -0.02, -75.22 -0.50, -77.58 267.64 80
8 12/16/2019 18:35:10 -0.01, -75.24 0.11, -74.62 69.60 80
9 12/18/2019 18:20:19 -0.00, -75.25 0.73, -71.67 407.43 80
10 12/19/2019 06:44:15 0.01, -75.26 0.36, -76.83 178.29 80




NCC Satellite Simultaneous Nadir Overpasses (SNOs) Prediction Service
